Retour au catalogue

STARLINK-34994

ActifCommunicationsVLEO
NORAD 65924·PAYLOAD·🇺🇸 United States

Lancé Oct 8, 2025 depuis Vandenberg Space Force Base

Loading…

Prochains Passages (prochaines 24 heures)

TLE

FraisSource: CelesTrak SupGP

Époque: Sep 14, 2026, 22:39 UTC

1 65924C 25225Q   26257.94423611 -.00011189  00000+0 -33058-3 0  2574
2 65924  53.1597   3.3911 0001107  74.3800 126.4658 15.34397400    15

Suivez STARLINK-34994 en temps réel avec AllMySat

Download on the App Store